Stations météo

réclame
Mon MeteoGroup
Vilhelmina, Suède (2245): Température de l'air & dewpoint: 18.01.2018 10:00:00 - 24.01.2018 10:00:00 (CET)Vilhelmina, Suède (2245): Vitesse du vent & gusts: 18.01.2018 10:00:00 - 24.01.2018 10:00:00 (CET)Vilhelmina, Suède (2245): Direction du vent: 18.01.2018 10:00:00 - 24.01.2018 10:00:00 (CET)Vilhelmina, Suède (2245): reduced air pressure: 18.01.2018 10:00:00 - 24.01.2018 10:00:00 (CET)Vilhelmina, Suède (2245): visibility: 18.01.2018 10:00:00 - 24.01.2018 10:00:00 (CET)Vilhelmina, Suède (2245): Quantités de précipitations: 18.01.2018 10:00:00 - 24.01.2018 10:00:00 (CET)
Date & Time tt [°C] td [°C] ff [km/h] ff [knt] fx [km/h] fx [knt] dd ppp [hPa] vv [km] rr [mm]
24.01.2018 10:00:00 -10,0 -11,1 5 3 12 7 W 991,9 4,2 0,0
24.01.2018 09:00:00 -9,8 -10,9 5 3 13 7 WNW 991,7 10 0,0
24.01.2018 08:00:00 -9,3 -10,4 9 5 13 7 WNW 992,1 10 0,3
24.01.2018 07:00:00 -6,4 -7,3 7 4 11 6 W 991,8 7 0,2
24.01.2018 06:00:00 -4,5 -5,0 5 3 9 5 - 992,3 10 0,2
24.01.2018 05:00:00 -4,8 -5,3 5 3 10 5 - 993,0 1,8 0,3
24.01.2018 04:00:00 -5,1 -5,8 8 5 18 10 E 994,4 1,8 0,3
24.01.2018 03:00:00 -5,7 -6,4 13 7 20 11 ESE 995,9 2,3 0,1
24.01.2018 02:00:00 -6,4 -6,9 15 8 20 11 ESE 997,6 3,9 0,0
24.01.2018 01:00:00 -7,2 -7,9 13 7 21 11 ESE 999,4 3,5 0,0
24.01.2018 00:00:00 -8,3 -9,0 15 8 19 10 E 1001,3 3,3 0,0
23.01.2018 23:00:00 -9,1 -10,2 11 6 16 8 E 1002,9 6 0,0
23.01.2018 22:00:00 -9,6 -10,8 6 4 13 7 E 1004,1 15 0,0
23.01.2018 21:00:00 -10,0 -11,3 7 4 17 9 E 1005,5 14 0,0
23.01.2018 20:00:00 -10,2 -11,4 6 3 11 6 ESE 1006,8 12 0,0
23.01.2018 19:00:00 -10,5 -11,8 4 2 12 7 ENE 1007,5 18 0,0
23.01.2018 18:00:00 -10,6 -11,9 8 4 11 6 E 1008,8 9 0,0
23.01.2018 17:00:00 -10,5 -11,7 9 5 12 6 E 1009,5 10 0,0
23.01.2018 16:00:00 -10,6 -11,8 5 3 8 5 E 1010,1 7 0,0
23.01.2018 15:00:00 -10,8 -12,1 5 3 8 4 E 1011,2 2,1 0,0
23.01.2018 14:00:00 -11,0 -12,3 5 3 9 5 E 1011,3 2,5 0,0
23.01.2018 13:00:00 -10,9 -12,2 6 3 8 5 E 1012,0 2,4 0,0
23.01.2018 12:00:00 -11,0 -12,3 8 4 9 5 E 1012,9 2,2 0,0
23.01.2018 11:00:00 -11,7 -13,0 2 1 5 3 E 1013,5 5 0,0
23.01.2018 10:00:00 -12,2 -13,5 0 0 1 1 N 1013,7 6 0,0
23.01.2018 09:00:00 -12,6 -13,9 0 0 2 1 N 1013,8 4,7 0,0
23.01.2018 08:00:00 -12,8 -14,2 0 0 3 1 N 1014,1 2,2 0,0
23.01.2018 07:00:00 -13,0 -14,4 0 0 4 2 N 1014,3 4,0 0,0
23.01.2018 06:00:00 -13,1 -14,5 0 0 4 2 N 1014,8 5 0,0
23.01.2018 05:00:00 -13,3 -14,7 0 0 5 3 N 1015,1 3,9 0,0
23.01.2018 04:00:00 -13,4 -14,8 3 2 4 2 ESE 1015,4 2,8 0,0
23.01.2018 03:00:00 -13,5 -14,9 4 2 4 2 - 1015,6 2,7 0,0
23.01.2018 02:00:00 -13,5 -14,9 3 2 5 3 E 1015,9 1,6 0,0
23.01.2018 01:00:00 -13,2 -14,6 3 1 4 2 E 1015,8 4,3 0,0
23.01.2018 00:00:00 -13,2 -14,8 0 0 2 1 N 1016,0 20 0,1
22.01.2018 23:00:00 -13,3 -14,9 0 0 3 2 N 1016,1 10 0,0
22.01.2018 22:00:00 -13,4 -15,0 0 0 2 1 N 1016,1 1,7 0,0
22.01.2018 21:00:00 -13,4 -15,0 0 0 2 1 N 1015,9 3,7 0,0
22.01.2018 20:00:00 -13,6 -15,2 0 0 3 1 N 1015,7 1,6 0,0
22.01.2018 19:00:00 -13,5 -15,1 0 0 4 2 N 1015,7 2,6 0,0
22.01.2018 18:00:00 -13,4 -15,0 0 0 1 1 N 1015,5 1,3 0,0
22.01.2018 17:00:00 -13,4 -15,0 0 0 1 1 N 1015,0 4,9 0,0
22.01.2018 16:00:00 -13,5 -15,1 0 0 3 1 N 1014,8 1,0 0,1
22.01.2018 15:00:00 -13,5 -15,1 0 0 2 1 N 1014,9 1,7 0,0
22.01.2018 14:00:00 -13,6 -15,3 4 2 4 2 W 1014,8 2,5 0,0
22.01.2018 13:00:00 -13,9 -15,7 3 1 3 2 W 1014,5 2,5 0,0
22.01.2018 12:00:00 -14,3 -16,1 0 0 4 2 N 1014,6 1,4 0,0
22.01.2018 11:00:00 -14,9 -16,9 0 0 2 1 N 1014,5 1,4 0,0
22.01.2018 10:00:00 -15,5 -17,3 0 0 2 1 N 1014,7 1,2 0,0
22.01.2018 09:00:00 -16,0 -17,8 0 0 4 2 N 1014,5 4,6 0,0
22.01.2018 08:00:00 -16,3 -18,0 2 1 4 2 - 1014,2 6 0,0
22.01.2018 07:00:00 -16,5 -18,3 0 0 3 1 N 1014,1 12 0,0
22.01.2018 06:00:00 -16,9 -18,7 2 1 4 2 - 1014,3 10 0,0
22.01.2018 05:00:00 -17,2 -19,0 4 2 4 2 W 1014,5 10 0,0
22.01.2018 04:00:00 -17,7 -19,6 0 0 4 2 N 1014,5 6 0,0
22.01.2018 03:00:00 -18,4 -20,3 4 2 9 5 - 1015,0 3,9 0,0
22.01.2018 02:00:00 -18,2 -20,1 4 2 9 5 - 1015,1 3,8 0,0
22.01.2018 01:00:00 -18,0 -19,9 3 2 11 6 WNW 1015,1 6 0,0
22.01.2018 00:00:00 -17,5 -19,4 5 3 9 5 W 1014,8 3,8 0,0
21.01.2018 23:00:00 -16,5 -18,3 8 4 13 7 W 1014,9 9 0,0
21.01.2018 22:00:00 -15,4 -17,2 5 3 8 4 W 1014,7 6 0,0
21.01.2018 21:00:00 -13,9 -15,6 4 2 6 4 WNW 1014,4 5 0,1
21.01.2018 20:00:00 -12,6 -14,0 5 3 7 4 W 1014,3 7 0,0
21.01.2018 19:00:00 -12,3 -13,6 4 2 5 3 W 1014,0 11 0,0
21.01.2018 18:00:00 -11,4 -12,7 0 0 4 2 N 1013,9 3,6 0,0
21.01.2018 17:00:00 -10,7 -12,0 0 0 7 4 N 1013,8 2,8 0,0
21.01.2018 16:00:00 -10,0 -11,3 3 1 5 3 NNW 1013,4 3,3 0,1
21.01.2018 15:00:00 -9,5 -10,7 4 2 7 4 WNW 1013,3 3,9 0,1
21.01.2018 14:00:00 -9,4 -10,6 5 3 6 3 WSW 1013,1 2,1 0,1
21.01.2018 13:00:00 -9,4 -10,6 2 1 5 3 W 1012,8 2,8 0,0
21.01.2018 12:00:00 -9,5 -10,7 5 3 6 3 W 1012,8 2,1 0,1
21.01.2018 11:00:00 -9,6 -10,7 0 0 4 2 N 1012,7 7 0,0
21.01.2018 10:00:00 -9,8 -10,9 0 0 4 2 N 1012,7 7 0,0
21.01.2018 09:00:00 -9,8 -10,9 0 0 2 1 N 1012,3 10 0,0
21.01.2018 08:00:00 -9,9 -11,0 0 0 2 1 N 1011,9 10 0,0
21.01.2018 07:00:00 -9,9 -11,0 0 0 3 1 N 1011,8 25 0,0
21.01.2018 06:00:00 -9,9 -11,0 0 0 4 2 N 1011,8 10 0,0
21.01.2018 05:00:00 -10,0 -11,1 0 0 4 2 N 1011,8 10 0,0
21.01.2018 04:00:00 -10,0 -10,9 0 0 3 1 N 1011,6 15 0,0
21.01.2018 03:00:00 -10,0 -10,9 0 0 4 2 N 1011,5 10 0,0
21.01.2018 02:00:00 -10,2 -11,0 0 0 3 2 N 1011,4 10 0,0
21.01.2018 01:00:00 -10,3 -11,2 3 1 4 2 W 1011,3 6 0,0
21.01.2018 00:00:00 -10,3 -11,3 0 0 7 4 N 1011,0 10 0,0
20.01.2018 23:00:00 -10,2 -11,4 5 3 6 3 W 1011,0 10 0,0
20.01.2018 22:00:00 -10,3 -11,5 0 0 5 3 N 1010,8 50 0,0
20.01.2018 21:00:00 -10,6 -11,8 5 3 7 4 W 1010,6 9 0,2
20.01.2018 20:00:00 -10,4 -11,6 5 3 6 3 W 1010,4 3,3 0,2
20.01.2018 19:00:00 -10,4 -11,6 4 2 8 4 WNW 1010,0 2,2 0,2
20.01.2018 18:00:00 -10,6 -11,8 4 2 5 3 - 1009,7 2,0 0,4
20.01.2018 17:00:00 -10,8 -12,0 3 2 8 4 WNW 1009,5 6 0,0
20.01.2018 16:00:00 -11,0 -12,2 5 3 9 5 WNW 1009,3 10 0,2
20.01.2018 15:00:00 -10,5 -11,7 5 3 10 5 W 1009,0 2,7 0,2
20.01.2018 14:00:00 -10,1 -11,3 8 4 10 5 W 1008,5 1,9 0,4
20.01.2018 13:00:00 -9,5 -10,7 5 3 7 4 W 1008,3 2,1 0,3
20.01.2018 12:00:00 -8,1 -9,2 2 1 7 4 - 1008,4 10 0,1
20.01.2018 11:00:00 -8,1 -9,2 5 3 6 4 ENE 1008,5 10 0,0
20.01.2018 10:00:00 -8,4 -9,3 4 2 8 4 ENE 1008,1 10 0,1
20.01.2018 09:00:00 -8,5 -9,6 5 3 8 5 E 1007,7 10 0,1
20.01.2018 08:00:00 -8,7 -9,8 4 2 10 6 - 1007,3 10 0,0
20.01.2018 07:00:00 -8,8 -9,9 6 4 14 7 E 1007,2 7 0,1
20.01.2018 06:00:00 -9,1 -10,2 9 5 12 7 E 1007,0 6 0,0
20.01.2018 05:00:00 -9,3 -10,5 9 5 15 8 ESE 1006,8 7 0,1
20.01.2018 04:00:00 -9,4 -10,6 13 7 17 9 ESE 1006,8 5 0,1
20.01.2018 03:00:00 -9,4 -10,7 11 6 15 8 ESE 1006,9 3,8 0,1
20.01.2018 02:00:00 -9,6 -10,8 4 2 9 5 - 1006,9 2,2 0,2
20.01.2018 01:00:00 -9,9 -11,1 4 2 10 6 E 1006,9 4,0 0,1
20.01.2018 00:00:00 -10,2 -11,4 5 3 11 6 E 1007,0 10 0,1
19.01.2018 23:00:00 -10,5 -11,7 9 5 16 9 E 1006,8 5 0,2
19.01.2018 22:00:00 -10,7 -12,0 10 5 18 10 ESE 1006,5 4,7 0,1
19.01.2018 21:00:00 -11,1 -12,4 15 8 17 9 ESE 1006,2 1,9 0,0
19.01.2018 20:00:00 -11,6 -12,9 13 7 17 9 ESE 1006,1 4,0 0,0
19.01.2018 19:00:00 -12,8 -14,2 3 2 7 4 ENE 1006,2 6 0,1
19.01.2018 18:00:00 -13,3 -14,7 4 2 6 3 - 1006,0 5 0,0
19.01.2018 17:00:00 -15,2 -16,7 0 0 4 2 N 1006,2 2,4 0,0
19.01.2018 16:00:00 -17,7 -19,5 2 1 3 1 E 1006,0 1,9 0,0
19.01.2018 15:00:00 -16,3 -18,1 0 0 2 1 N 1005,6 8 0,0
19.01.2018 14:00:00 -15,9 -17,4 0 0 3 2 N 1005,2 2,4 0,1
19.01.2018 13:00:00 -16,0 -17,9 0 0 5 3 N 1005,1 8 0,0
19.01.2018 12:00:00 -16,9 -18,7 4 2 3 2 NE 1005,1 4,5 0,0
19.01.2018 11:00:00 -18,6 -20,5 0 0 4 2 N 1005,0 10 0,0
19.01.2018 10:00:00 -19,5 -21,5 0 0 2 1 N 1004,9 10 0,0
19.01.2018 09:00:00 -20,6 -22,7 0 0 5 3 N 1004,5 10 0,0
19.01.2018 08:00:00 -21,4 -23,5 4 2 4 2 E 1004,1 10 0,0
19.01.2018 07:00:00 -22,4 -24,6 2 1 4 2 SW 1003,8 10 0,1
19.01.2018 06:00:00 -20,8 -22,9 0 0 2 1 N 1003,3 4,0 0,0
19.01.2018 05:00:00 -19,9 -21,8 0 0 1 1 N 1002,9 10 0,0
19.01.2018 04:00:00 -18,4 -20,4 0 0 2 1 N 1002,6 5 0,0
19.01.2018 03:00:00 -17,3 -19,4 0 0 3 1 N 1002,5 1,5 0,1
19.01.2018 02:00:00 -14,7 -16,4 0 0 5 3 N 1002,0 5 0,0
19.01.2018 01:00:00 -14,8 -16,3 4 2 5 3 WNW 1002,0 3,3 0,0
19.01.2018 00:00:00 -14,6 -16,1 2 1 5 3 WNW 1001,7 6 0,0
18.01.2018 23:00:00 -14,4 -15,9 4 2 4 2 - 1001,8 2,6 0,1
18.01.2018 22:00:00 -14,5 -16,0 4 2 5 3 - 1001,8 3,9 0,0
18.01.2018 21:00:00 -14,8 -16,3 0 0 4 2 N 1001,7 5 0,0
18.01.2018 20:00:00 -15,7 -17,4 0 0 3 2 N 1001,6 7 0,0
18.01.2018 19:00:00 -16,6 -18,3 0 0 1 1 N 1001,4 2,7 0,0
18.01.2018 18:00:00 -16,1 -17,8 0 0 2 1 N 1001,1 2,4 0,0
18.01.2018 17:00:00 -16,5 -18,2 0 0 4 2 N 1001,1 5 0,0
18.01.2018 16:00:00 -17,4 -19,0 0 0 5 3 N 1001,1 2,5 0,1
18.01.2018 15:00:00 -18,3 -20,1 0 0 4 2 N 1001,2 1,8 0,0
18.01.2018 14:00:00 -17,5 -19,1 0 0 5 3 N 1001,1 5 0,0
18.01.2018 13:00:00 -15,3 -16,8 0 0 3 2 N 1001,0 7 0,0
18.01.2018 12:00:00 -15,2 -16,7 0 0 3 1 N 1001,1 2,0 0,1
18.01.2018 11:00:00 -14,3 -16,0 0 0 2 1 N 1001,0 4,0 0,0
18.01.2018 10:00:00 -15,4 -16,9 0 0 2 1 N 1001,1 1,8 0,0

tt = Température de l'air
td = dewpoint
ff = Vitesse du vent
fx = gusts
dd = Direction du vent
ppp = reduced air pressure
vv = visibility
rr = Quantités de précipitations

stations d'obs. à proximité